ARIANE 44LP DEB, 27660

Orbit data source: Space-Track

ARIANE 44LP DEB, 27660 is space debris in HEO originally from a launch on Tue, 08 Aug 1989 UTC launched from the French Guiana (FRGUI). Debris objects in space refer to the collection of defunct objects orbiting the Earth. Examples of debris include non-operational satellites, rocket bodies, and fragments generated from explosions, collisions, or faulty payload assembly.

Loading next visibility...
Identifier
27660, 1989-062Q
Orbit
HEO
Country
Flag of FRFR
Related business
Manufacturer
Unknown
Mission
Spacecraft
Bus & Motor
Unknown
Mass
Unknown
Launch date (UTC)
1989-08-08 (37 years ago)
Launch vehicle
Unknown
Launch site
French Guiana (FRGUI)
Object type
Payload
Rocket body
Debris
Shape & HBR
Unknown shape, 1.0 m
Radar Cross Section
Medium (>0.1 m² and <1 m²)

Expand to show TLE details & history
Last TLE update: 1 week ago

TLE from 1 week ago
0 ARIANE 44LP DEB
1 27660U 89062Q   26152.32368329 -.00000089  00000-0 -24988-3 0  9991
2 27660   7.1251  49.6104 7038647 149.5869 282.7003  2.41459872118970
Epoch: 2026-06-01T07:46Z
TLE epoch observation values (Epoch: 2026-06-01T07:46:06.236Z)
Latitude
0.00007°
Longitude
43.11597°
Altitude
23,868.649 km
Speed
3.061 km/s
True Right ascension
03h 17m 49s
True Declination
0° 00' 00"
Sunlit
Object was in daylight at epoch
Visualization orbit readout
Latitude
Unknown
Longitude
Unknown
Altitude
Unknown
Speed
Unknown
Apparent Right ascension
Unknown
Apparent Declination
Unknown
Sunlit
N/A
Visualization observer readout
Local Sidereal Time
19:23:50
Azimuth
Unknown
Elevation
Unknown
Doppler factor
Unknown
Orbital elements
Apogee altitude
33,619.582 km
Perigee altitude
573.551 km
Semi-major axis
23,474.704 km
Eccentricity
0.70386
Inclination
7.1251°
RAAN
49.6104°
Arg. of periapsis
149.5869°
True anomaly
210.23694°
Mean anomaly
282.7003°
Eccentric anomaly
245.88997°
Mean motion
0.60345 °/min
Orbital period
596.57 mins
BSTAR
-0.00024988
Loading maneuver chart data...
Computing Atmospheric mass density...
Loading historical data...
Loading historical data...
Loading historical data...
Loading historical data...
Loading historical data...
Loading historical data...
Loading historical data...

Documentation

Showing up to 5 results
|